This demonstration page uses our WeatherBlox Daily Observations layout. Learn more.

Left ArrowRight Arrow

38.20091, -84.87328

Hourly Observations for July 2, 2015

Temp ( °F °C ) Dew Point ( °F °C ) Humidity (%) Winds ( mph kmh ) Pressure ( in mb ) Visibility ( mi km ) Precip ( " mm )
12:53 am 00:53 Cloudy with Mist and Fog 70 21.1 67 19.4 90 90 Calm 29.91 1013 4 6 0.00 0.00
1:53 am 01:53 Mostly Cloudy with Mist and Fog 70 21.1 67 19.4 90 90 SW 9 15 29.89 1012 4 6 0.00 0.00
2:42 am 02:42 Mostly Cloudy with Mist and Fog 69 20.6 67 19.4 93 93 SSW 6 9 29.88 1012 5 8 0.00 0.00
2:53 am 02:53 Mostly Cloudy with Mist and Fog 70 21.1 67 19.4 90 90 SSW 5 7 29.88 1012 5 8 0.00 0.00
3:02 am 03:02 Cloudy with Light Rain 70 21.1 67 19.4 90 90 SW 5 7 29.88 1012 5 8 0.00 0.03
3:19 am 03:19 Cloudy with Rain 69 20.6 67 19.4 93 93 SW 5 7 29.88 1012 3 5 0.03 0.76
3:53 am 03:53 Mostly Cloudy with Mist and Fog 69 20.6 67 19.4 93 93 Calm 29.85 1011 5 8 0.04 1.02
4:34 am 04:34 Mostly Cloudy with Mist and Fog 69 20.6 67 19.4 93 93 S 3 6 29.85 1011 3 4 0.00 0.03
4:45 am 04:45 Mostly Cloudy with Mist and Fog 69 20.6 67 19.4 93 93 Calm 29.85 1011 3 4 0.00 0.03
4:53 am 04:53 Cloudy with Mist and Fog 69 20.6 68 20 96 96 SSW 3 6 29.87 1011 3 5 0.00 0.03
5:20 am 05:20 Cloudy with Rain 69 20.6 67 19.4 93 93 S 5 7 29.85 1011 2 3 0.04 1.02
5:28 am 05:28 Cloudy with Light Rain 69 20.6 67 19.4 93 93 SSW 3 6 29.88 1012 3 5 0.05 1.27
5:40 am 05:40 Cloudy with Light Rain 69 20.6 67 19.4 93 93 SSW 6 9 29.88 1012 5 8 0.05 1.27
5:53 am 05:53 Cloudy with Light Rain 69 20.6 67 19.4 93 93 S 6 9 29.88 1012 5 8 0.06 1.52
6:24 am 06:24 Cloudy 69 20.6 67 19.4 93 93 S 7 11 29.88 1012 7 11 0.00 0.03
6:45 am 06:45 Cloudy with Mist and Fog 69 20.6 67 19.4 93 93 S 5 7 29.85 1011 6 10 0.00 0.03
6:53 am 06:53 Cloudy with Mist and Fog 69 20.6 67 19.4 93 93 S 6 9 29.87 1011 5 8 0.00 0.03
7:53 am 07:53 Cloudy with Mist and Fog 69 20.6 66 18.9 90 90 S 3 6 29.87 1012 5 8 0.00 0.00
8:10 am 08:10 Cloudy with Mist and Fog 69 20.6 66 18.9 90 90 S 5 7 29.85 1011 5 8 0.00 0.00
8:22 am 08:22 Cloudy with Mist and Fog 69 20.6 66 18.9 90 90 SSE 5 7 29.85 1011 5 8 0.00 0.00
8:34 am 08:34 Cloudy with Mist and Fog 69 20.6 66 18.9 90 90 S 6 9 29.85 1011 5 8 0.00 0.00
8:53 am 08:53 Cloudy with Mist and Fog 69 20.6 66 18.9 90 90 SSW 6 9 29.87 1012 5 8 0.00 0.03
9:17 am 09:17 Cloudy with Rain 69 20.6 66 18.9 90 90 WSW 5 7 29.88 1012 2 3 0.04 1.02
9:21 am 09:21 Cloudy with Heavy Rain 69 20.6 66 18.9 90 90 SW 7 11 29.88 1012 1 1 0.13 3.30
9:28 am 09:28 Cloudy with Heavy Rain 68 20 66 18.9 93 93 S 7 11 29.88 1012 0 0 0.43 10.92
9:38 am 09:38 Cloudy with Rain 69 20.6 67 19.4 93 93 S 7 11 29.88 1012 1 2 0.55 13.97
9:42 am 09:42 Cloudy with Light Rain 69 20.6 67 19.4 93 93 SSW 8 13 29.88 1012 2 3 0.55 13.97
9:49 am 09:49 Cloudy with Light Rain 70 21 66 19 88 88 SSW 6 9 29.88 1012 10 16 0.55 13.97
9:53 am 09:53 Cloudy 69 20.6 67 19.4 93 93 SSW 5 7 29.88 1012 10 16 0.55 13.97
10:05 am 10:05 Cloudy 69 20.6 67 19.4 93 93 SSW 5 7 29.88 1012 9 14 0.00 0.00
10:42 am 10:42 Cloudy with Heavy Rain 69 20.6 67 19.4 93 93 WSW 5 7 29.88 1012 2 3 0.06 1.52
10:53 am 10:53 Cloudy with Rain 69 20.6 67 19.4 93 93 SW 3 6 29.89 1012 2 3 0.09 2.29
11:16 am 11:16 Mostly Cloudy with Light Rain 70 21.1 68 20 93 93 SSW 6 9 29.85 1011 5 8 0.05 1.27
11:35 am 11:35 Cloudy 71 21.7 68 20 90 90 SW 10 17 29.88 1012 10 16 0.05 1.27
11:53 am 11:53 Cloudy 71 21.7 68 20 90 90 SW 8 13 29.88 1012 10 16 0.05 1.27
12:53 pm 12:53 Mostly Cloudy 75 23.9 69 20.6 82 82 SW 6 9 29.86 1011 10 16 0.00 0.00
1:02 pm 13:02 Mostly Cloudy 75 23.9 69 20.6 82 82 SSW 5 7 29.85 1011 10 16 0.00 0.00
1:53 pm 13:53 Mostly Sunny 77 25 69 20.6 77 77 SW 5 7 29.86 1011 10 16 0.00 0.00
2:40 pm 14:40 Cloudy 78 25.6 68 20 71 71 SSW 10 17 29.85 1011 10 16 0.00 0.00
2:53 pm 14:53 Cloudy 77 25 68 20 74 74 SW 10 17 29.84 1011 10 16 0.00 0.00
3:21 pm 15:21 Cloudy with Light Rain 72 22.2 67 19.4 84 84 WSW 13 20 29.85 1011 1 2 0.16 4.06
3:28 pm 15:28 Cloudy with Heavy Rain 71 21.7 67 19.4 87 87 SW 5 7 29.85 1011 0 0 0.48 12.19
3:36 pm 15:36 Cloudy with Nearby Thunderstorms 72 22.2 67 19.4 84 84 Calm 29.85 1011 1 1 0.57 14.48
3:40 pm 15:40 Cloudy with Nearby Thunderstorms 72 22.2 68 20 87 87 Calm 29.85 1011 2 3 0.57 14.48
3:42 pm 15:42 Cloudy with Nearby Thunderstorms 73 22.8 68 20 84 84 Calm 29.85 1011 3 5 0.57 14.48
3:53 pm 15:53 Cloudy 74 23.3 69 20.6 85 85 Calm 29.85 1011 10 16 0.57 14.48
4:15 pm 16:15 Cloudy with Nearby Thunderstorms 76 24.4 68 20 77 77 SW 7 11 29.85 1011 10 16 0.00 0.00
4:30 pm 16:30 Cloudy 75 23.9 67 19.4 76 76 SW 6 9 29.83 1010 10 16 0.00 0.00
4:53 pm 16:53 Cloudy 77 25 68 20 74 74 E 5 7 29.83 1010 10 16 0.00 0.00
5:29 pm 17:29 Cloudy 76 24.4 69 20.6 79 79 NNE 3 6 29.83 1010 10 16 0.00 0.00
5:38 pm 17:38 Cloudy 76 24.4 69 20.6 79 79 NNE 3 6 29.85 1011 10 16 0.00 0.00
5:45 pm 17:45 Cloudy 76 24.4 70 21.1 82 82 NNE 3 6 29.85 1011 10 16 0.00 0.00
5:53 pm 17:53 Cloudy 76 24.4 70 21.1 82 82 NE 3 6 29.84 1011 10 16 0.00 0.00
6:53 pm 18:53 Mostly Sunny 77 25 70 21.1 79 79 E 3 6 29.83 1010 10 16 0.00 0.00
7:53 pm 19:53 Mostly Cloudy 77 25 68 20 74 74 ENE 7 11 29.83 1010 10 16 0.00 0.00
8:02 pm 20:02 Mostly Cloudy 76 24.4 68 20 77 77 ENE 5 7 29.83 1010 10 16 0.00 0.00
8:53 pm 20:53 Partly Cloudy 73 22.8 69 20.6 87 87 ENE 6 9 29.84 1011 10 16 0.00 0.00
9:53 pm 21:53 Mostly Clear 72 22.2 68 20 87 87 E 5 7 29.85 1011 10 16 0.00 0.00
10:53 pm 22:53 Cloudy 72 22.2 67 19.4 84 84 E 5 7 29.86 1011 10 16 0.00 0.00
11:53 pm 23:53 Mostly Cloudy 71 21.7 67 19.4 87 87 NE 5 7 29.84 1011 10 16 0.01 0.25

Powered by AerisWeather